Massena, NY

12:57 PM EDT on August 18, 2017 (GMT -0400)
Massena International-Richards

Weather History for KMSS - April, 2014

Change the Weather History Date:

Saturday, April 26, 2014

  Actual Average Record
Temperature  
Mean Temperature 43 °F 48 °F  
Max Temperature 46 °F 60 °F 85 °F (1990)
Min Temperature 40 °F 37 °F 22 °F (1972)
Degree Days  
Heating Degree Days 22 17  
Month to date heating degree days 629 587  
Since 1 July heating degree days 8226 7718  
Cooling Degree Days 0 0  
Month to date cooling degree days 0 0  
Year to date cooling degree days 0 0  
Moisture  
Dew Point 39 °F    
Average Humidity 88    
Maximum Humidity 96    
Minimum Humidity 79    
Precipitation  
Precipitation 0.10 in 0.10 in 0.55 in (2011)
Month to date precipitation 2.82 2.43  
Year to date precipitation 6.47 8.47  
Sea Level Pressure  
Sea Level Pressure 29.77 in    
Wind  
Wind Speed 6 mph (West)    
Max Wind Speed 14 mph    
Max Gust Speed 17 mph    
Visibility 8 miles    
Events Rain    
T = Trace of Precipitation, MM = Missing Value Source: NWS Daily Summary

Daily Weather History Graph

Daily Weather History Graph

Search for Another Location

Airport or City:

Trip Planner

Search our weather history database for the weather conditions in past years. The results will help you decide how hot, cold, wet, or windy it might be!

Date:

Astronomy

Apr. 26, 2014 Rise Set
Actual Time 5:56 AM EDT 7:58 PM EDT
Civil Twilight 5:24 AM EDT 8:30 PM EDT
Nautical Twilight 4:45 AM EDT 9:09 PM EDT
Astronomical Twilight 4:03 AM EDT 9:52 PM EDT
Moon 4:27 AM EDT (4/26) 5:17 PM EDT (4/26)
Length of Visible Light 15h 05m
Length of Day
14h 02m
Waning Crescent, 8% of the Moon is Illuminated
Apr 26
Waning Crescent
Apr 29
New
May 6
First Quarter
May 14
Full
May 21
Last Quarter

Hourly Weather History & Observations

Time (EDT) Temp. Windchill Dew Point Humidity Pressure Visibility Wind Dir Wind Speed Gust Speed Precip Events Conditions
12:53 AM 46.4 °F 41.5 °F 28.4 °F 50% 29.74 in 10.0 mi East 10.4 mph - N/A Rain Light Rain
1:53 AM 44.1 °F 40.8 °F 32.0 °F 63% 29.73 in 10.0 mi East 5.8 mph - 0.00 in Rain Light Rain
2:53 AM 41.0 °F 36.4 °F 37.0 °F 86% 29.71 in 10.0 mi ENE 6.9 mph - 0.01 in Rain Light Rain
3:53 AM 41.0 °F 35.8 °F 37.9 °F 89% 29.70 in 10.0 mi NE 8.1 mph - 0.02 in Rain Light Rain
4:53 AM 41.0 °F 35.8 °F 36.0 °F 82% 29.69 in 10.0 mi NE 8.1 mph - 0.00 in Rain Light Rain
5:53 AM 39.9 °F 35.1 °F 36.0 °F 86% 29.69 in 10.0 mi ENE 6.9 mph - 0.00 in   Overcast
6:53 AM 41.0 °F 36.4 °F 36.0 °F 82% 29.70 in 10.0 mi ENE 6.9 mph - N/A   Overcast
7:26 AM 41.0 °F 35.8 °F 36.0 °F 82% 29.69 in 10.0 mi ENE 8.1 mph - N/A   Overcast
7:53 AM 41.0 °F 36.4 °F 37.0 °F 86% 29.70 in 10.0 mi East 6.9 mph - N/A   Overcast
8:53 AM 41.0 °F 39.0 °F 39.0 °F 93% 29.71 in 10.0 mi ESE 3.5 mph - 0.00 in   Overcast
9:53 AM 42.1 °F - 39.9 °F 92% 29.72 in 8.0 mi Calm Calm - 0.00 in Rain Light Rain
10:00 AM 42.1 °F - 39.9 °F 92% 29.71 in 8.0 mi Calm Calm - 0.00 in Rain Light Rain
10:48 AM 42.8 °F - 41.0 °F 93% 29.71 in 6.0 mi Calm Calm - 0.01 in Rain Light Rain
10:53 AM 42.1 °F - 41.0 °F 96% 29.72 in 6.0 mi Calm Calm - 0.01 in Rain Light Rain
11:01 AM 42.1 °F 40.2 °F 41.0 °F 96% 29.71 in 6.0 mi SW 3.5 mph - 0.00 in Rain Light Rain
11:53 AM 43.0 °F 37.7 °F 41.0 °F 93% 29.72 in 1.8 mi SW 9.2 mph - 0.01 in   Overcast
12:19 PM 43.0 °F 40.3 °F 42.1 °F 97% 29.71 in 2.5 mi WSW 4.6 mph - N/A   Overcast
12:44 PM 43.0 °F 38.8 °F 42.1 °F 97% 29.71 in 4.0 mi WSW 6.9 mph - N/A   Overcast
12:53 PM 43.0 °F 39.5 °F 42.1 °F 97% 29.72 in 6.0 mi WNW 5.8 mph - 0.00 in Rain Light Rain
1:20 PM 42.1 °F 39.2 °F 41.0 °F 96% 29.72 in 1.8 mi West 4.6 mph - 0.00 in Rain Light Rain
1:34 PM 43.0 °F 39.5 °F 42.1 °F 97% 29.72 in 3.0 mi WSW 5.8 mph - 0.00 in   Overcast
1:53 PM 43.0 °F 39.5 °F 42.1 °F 97% 29.74 in 3.0 mi West 5.8 mph - 0.01 in   Overcast
2:12 PM 42.1 °F 36.6 °F 41.0 °F 96% 29.73 in 2.0 mi WSW 9.2 mph - N/A   Overcast
2:32 PM 42.1 °F 36.6 °F 41.0 °F 96% 29.73 in 3.0 mi WSW 9.2 mph - 0.00 in   Overcast
2:40 PM 42.1 °F 37.1 °F 41.0 °F 96% 29.74 in 2.5 mi West 8.1 mph - 0.00 in   Overcast
2:53 PM 42.1 °F 36.6 °F 41.0 °F 96% 29.75 in 3.0 mi West 9.2 mph - 0.00 in   Overcast
3:17 PM 42.1 °F 36.6 °F 41.0 °F 96% 29.74 in 4.0 mi West 9.2 mph - N/A   Overcast
3:29 PM 42.1 °F 37.1 °F 41.0 °F 96% 29.75 in 4.0 mi West 8.1 mph - 0.00 in Rain Light Rain
3:43 PM 43.0 °F 38.8 °F 41.0 °F 93% 29.75 in 4.0 mi West 6.9 mph - 0.00 in Rain Light Rain
3:53 PM 42.1 °F 37.7 °F 41.0 °F 96% 29.77 in 6.0 mi NW 6.9 mph - 0.00 in Rain Light Rain
4:05 PM 42.1 °F 36.6 °F 39.9 °F 92% 29.76 in 10.0 mi NW 9.2 mph - 0.00 in Rain Light Rain
4:53 PM 42.1 °F 37.1 °F 39.9 °F 92% 29.79 in 10.0 mi West 8.1 mph - 0.00 in   Overcast
4:56 PM 42.1 °F 37.1 °F 39.9 °F 92% 29.78 in 10.0 mi West 8.1 mph - N/A   Overcast
5:22 PM 42.1 °F 37.7 °F 39.9 °F 92% 29.79 in 10.0 mi West 6.9 mph - N/A   Overcast
5:41 PM 42.1 °F 37.7 °F 39.9 °F 92% 29.80 in 10.0 mi West 6.9 mph - N/A   Overcast
5:53 PM 42.1 °F 38.4 °F 39.9 °F 92% 29.81 in 10.0 mi West 5.8 mph - N/A   Overcast
6:18 PM 42.1 °F 37.7 °F 39.9 °F 92% 29.81 in 10.0 mi West 6.9 mph - 0.00 in Rain Light Rain
6:53 PM 42.1 °F 37.7 °F 39.9 °F 92% 29.84 in 7.0 mi West 6.9 mph - 0.01 in Rain Light Rain
7:53 PM 42.1 °F 38.4 °F 41.0 °F 96% 29.86 in 10.0 mi West 5.8 mph - 0.00 in Rain Light Rain
8:10 PM 42.1 °F 39.2 °F 41.0 °F 96% 29.85 in 6.0 mi Variable 4.6 mph - 0.00 in Rain Light Rain
8:29 PM 42.1 °F 40.2 °F 39.9 °F 92% 29.86 in 10.0 mi WNW 3.5 mph - 0.00 in Rain Light Rain
8:53 PM 41.0 °F 36.4 °F 39.9 °F 96% 29.88 in 10.0 mi West 6.9 mph - 0.00 in   Overcast
9:19 PM 41.0 °F 37.1 °F 39.0 °F 93% 29.88 in 10.0 mi West 5.8 mph - N/A   Overcast
9:43 PM 41.0 °F 37.1 °F 39.0 °F 93% 29.88 in 10.0 mi West 5.8 mph - N/A   Overcast
9:53 PM 41.0 °F 37.1 °F 39.0 °F 93% 29.90 in 10.0 mi West 5.8 mph - N/A   Overcast
10:53 PM 41.0 °F 37.1 °F 39.0 °F 93% 29.91 in 10.0 mi WNW 5.8 mph - N/A   Overcast
11:03 PM 41.0 °F 36.4 °F 39.0 °F 93% 29.89 in 10.0 mi WNW 6.9 mph - N/A   Overcast
11:12 PM 41.0 °F 37.1 °F 39.0 °F 93% 29.90 in 10.0 mi WNW 5.8 mph - N/A   Overcast
11:34 PM 41.0 °F 36.4 °F 39.9 °F 96% 29.90 in 10.0 mi WNW 6.9 mph - N/A   Overcast
11:53 PM 41.0 °F 36.4 °F 39.9 °F 96% 29.92 in 5.0 mi NW 6.9 mph - 0.01 in Rain Light Rain